Regional Weather Roundup
Issued by NWS

Home | Current Version | Previous Version | Graphics & Text | Print | Product List | Glossary On
Versions: 1 2 3 4 5 6 7 8 9 10 11 12 13 14 15 16 17 18 19 20 21 22 23 24 25 26 27 28 29 30 31 32 33 34 35 36 37 38 39 40 41 42 43 44 45 46 47 48 49 50
000
ASUS43 KLMK 241410
RWRKY
KENTUCKY REGIONAL WEATHER ROUNDUP
NATIONAL WEATHER SERVICE LOUISVILLE KY
1000 AM EDT SAT SEP 24 2016

NOTE "FAIR" INDICATES FEW OR NO CLOUDS BELOW 12,000 FEET
WITH NO SIGNIFICANT WEATHER AND/OR OBSTRUCTIONS TO VISIBILITY.

KYZ001>023-026-027-061>063-070>075-241500-
WESTERN AND SOUTH CENTRAL KENTUCKY

CITY           SKY/WX    TMP DP  RH WIND       PRES   REMARKS
PADUCAH        SUNNY     77  71  82 E3        30.11S
HENDERSON      SUNNY     75  68  78 CALM      30.12S
OWENSBORO      SUNNY    N/A N/A N/A VRB3      30.13S HAZE
HOPKINSVILLE   SUNNY     75  69  81 CALM      30.13S
BOWLING GREEN  SUNNY     74  69  85 CALM      30.15R HAZE
GLASGOW        SUNNY     73  72  97 CALM      30.15S
$$

KYZ024-025-028>034-038-045-046-053-241500-
NORTH CENTRAL KENTUCKY

CITY           SKY/WX    TMP DP  RH WIND       PRES   REMARKS
LOUISVILLE/SDF SUNNY     79  68  69 CALM      30.13S HAZE
LOUISVILLE/LOU SUNNY     77  68  73 CALM      30.14S
FORT KNOX      SUNNY     79  68  69 SW2       30.13R
$$

KYZ035>037-039>044-047>052-055>060-089>105-241500-
NORTHEAST KENTUCKY

CITY           SKY/WX    TMP DP  RH WIND       PRES   REMARKS
LEXINGTON      SUNNY     80  65  59 NE3       30.15R
COVINGTON      MOSUNNY   74  68  81 E9        30.16R HAZE
FRANKFORT      SUNNY     77  65  66 CALM      30.13S
$$

KYZ054-064>069-076>088-106>120-241500-
SOUTHEAST KENTUCKY

CITY           SKY/WX    TMP DP  RH WIND       PRES   REMARKS
JACKSON        SUNNY     72  65  78 CALM      30.17R
LONDON         SUNNY     71  65  81 CALM      30.16S
SOMERSET       SUNNY     68  66  94 CALM      30.17S
MIDDLESBORO    CLOUDY    63  63 100 CALM      30.19S FOG
MONTICELLO     SUNNY     74  66  76 W10       30.18R
$$




USA.gov is the U.S. government's official web portal to all federal, state and local government web resources and services.